Rbgn^[z[y[W
メイン
   新天体発見情報
     Comet C/2023 TD22 (Lemmon)
投稿するにはまず登録を

スレッド表示 | 新しいものから 前のトピック | 次のトピック | 下へ
投稿者 スレッド
佐藤裕久
投稿日時: 2024-8-22 1:14
モデレータ
登録日: 2005-6-12
居住地: 日本
投稿: 2703
オンライン
Comet C/2023 TD22 (Lemmon)

2023年10月12日、Mt Lemmoサーベイの1.5-m 反射望遠鏡で発見された小惑星状天体 2023 TD22が
近日点に近づくにつれ、最近彗星活動を示すことがわかった。
MPS 1974518には、HaleakalaのPan-STARRS2 1.8-m Ritchey-Chretien反射望遠鏡で、2023年9月
26.5日UT(21.8-22.0等)と2023年10月7.5日(20.9-21.3等)に得た、発見前の観測も含まれており、
発見報告後に報告された。
佐藤英貴氏(東京都文京区, 7月4.82日UT、60-秒露出12枚のスタック, 0.51-m f/6.8 アストログラ
フ, Siding Spring, NSW, オーストラリア, 遠隔操作: 強く集光した 8"のコマが見えるが、尾は
ない。4".3の円形範囲で測定した光度は18.5等であった)、吉本勝巳氏(山口県熊毛郡平生町, 8月
7.6日, 60-秒露出27枚のスタック, 0.20-m f/8 Ritchey-Chretien反射望遠鏡(+ CMO): 非常に集光
した12"のコマが見え、p.a. 240°にかすかな12"の尾がある。全光度は17.4等と測定された)や、
門田健一氏(埼玉県上尾市, 8月12.69日, 0.25-m f/5 反射望遠鏡: 全光度は16.8等)ら位置観測者に
よって彗星状と観測された。

彗星機能の報告は次のとおり、

OC   Date        Reporter           Coma    Tail    PA          Exposures
Q62  2024-07-04  H. Sato            8"                            12x60s
Q62  2024-08-02  D. De Martin      10"
157  2024-08-07  R. Haver          10"       45"    255           30x90s
Z28  2024-08-07  D. De Martin      10"        8"    240
P98  2024-08-07  K. Yoshimoto      14"       12"    240           27x60s
Z28  2024-08-08  D. De Martin      11"       10"    240-340

発見位置は次のとおり、

     2023 UT             R.A. (2000) Decl.       Mag.
     Oct. 12.38144    4 27 21.36   +12 38 05.2   21.5
          12.38752    4 27 20.88   +12 38 02.4
          12.39268    4 27 20.51   +12 38 01.6   20.7
          12.39888    4 27 20.07   +12 37 59.8   20.8

MPCの楕円軌道要素、位置推算表は次のとおり、

Orbital elements:
    C/2023 TD22 (Lemmon)                                                        
Epoch 2024 Oct. 17.0 TT = JDT 2460600.5                                         
T 2024 Sept. 16.29337 TT                                Rudenko                 
q   2.3568103            (2000.0)            P               Q                  
z  +0.0207694      Peri.   32.53496     +0.89045990     -0.45478043             
 +/-0.0000041      Node     5.55631     -0.44482022     -0.86246501             
e   0.9510506      Incl.  170.48969     -0.09600075     -0.22210101             
From 137 observations 2023 Sept. 26-2024 Aug. 8, mean residual 0".3.            
                                                                                
Ephemeris:
Date    TT    R. A. (2000) Decl.     Delta      r    Elong.  Phase   m1
2024 07 10    01 21 20.4 +09 56 59   2.3354  2.4712    85.4    24.2  18.3
...
2024 07 25    00 58 16.8 +09 00 59   1.9527  2.4273   105.3    23.8  17.8
...
2024 08 02    00 39 12.7 +07 59 24   1.7628  2.4080   117.7    21.9  17.5
...
2024 08 08    00 20 56.2 +06 52 24   1.6344  2.3955   128.0    19.5  17.4
2024 08 09    00 17 31.6 +06 39 13   1.6146  2.3936   129.8    19.0  17.3
2024 08 10    00 14 00.7 +06 25 25   1.5953  2.3917   131.6    18.5  17.3
...
2024 08 16    23 50 40.4 +04 49 11   1.4923  2.3814   143.2    14.8  17.1
...
2024 08 24    23 13 59.7 +02 05 33   1.3961  2.3705   159.7     8.5  17.0
...
2024 09 08    21 56 45.4 -04 01 58   1.3781  2.3586   162.5     7.4  16.9

(MPEC 2024-P107、CBET 5429)


スレッド表示 | 新しいものから 前のトピック | 次のトピック | トップ

投稿するにはまず登録を
 
© 1999 Tsutomu Seki.